User: anonymous   Login
Location: Theydon Bois
(51.6750°N, 0.1050°E)
Time: 05:24:21
(UTC+01:00)
Language:

Cosmos 2333 Rocket - Orbit

View from above orbital plane
View from above orbital plane
View from above satellite
View from above satellite

Ground track
Ground track

The orbit data is extracted from the following two-line orbital elements,

1 24298U 96051B   18203.56073155 -.00000188 +00000-0 -75157-4 0  9990
2 24298 070.8337 298.1557 0017931 300.7282 059.2072 14.12422012128099
Epoch (UTC): 22 July 2018 13:27:27
Eccentricity: 0.0017931
inclination: 70.8337°
perigee height: 838 km
apogee height: 864 km
right ascension of ascending node: 298.1557°
argument of perigee: 300.7282°
revolutions per day: 14.12422012
mean anomaly at epoch: 59.2072°
orbit number at epoch: 12809

The dashed part of the orbit path shows where the satellite is in the earth's shadow,  

DLR